This is the latest recevied weather packets stored in our database for station/object OM5ZU-10. If no packets are shown the sender has not sent any weather packets the latest 10 day(s).
| Time | Temp. | Humidity | Pressure | Rain* | Wind** | Luminosity | Snow |
|---|---|---|---|---|---|---|---|
| 1787751953 | 30.56° C | 73% | 1016.5 hPa | - | - | - | - |
| 1787751053 | 31.67° C | 73% | 1016.4 hPa | - | - | - | - |
| 1787750153 | 30° C | 73% | 1016.6 hPa | - | - | - | - |
| 1787749252 | 30° C | 73% | 1016.6 hPa | - | - | - | - |
| 1787748352 | 30° C | 73% | 1016.7 hPa | - | - | - | - |
| 1787747452 | 30° C | 73% | 1016.7 hPa | - | - | - | - |
| 1787746552 | 29.44° C | 73% | 1016.8 hPa | - | - | - | - |
| 1787745652 | 29.44° C | 73% | 1016.8 hPa | - | - | - | - |
| 1787744752 | 29.44° C | 73% | 1016.8 hPa | - | - | - | - |
| 1787743852 | 30° C | 73% | 1017 hPa | - | - | - | - |
| 1787742951 | 28.89° C | 73% | 1017 hPa | - | - | - | - |
| 1787742051 | 26.11° C | 72% | 1017.1 hPa | - | - | - | - |
| 1787741151 | 27.78° C | 73% | 1017.4 hPa | - | - | - | - |
| 1787740250 | 27.22° C | 72% | 1017.3 hPa | - | - | - | - |
| 1787739350 | 25° C | 72% | 1017.3 hPa | - | - | - | - |
| 1787738450 | 26.67° C | 72% | 1017.5 hPa | - | - | - | - |
| 1787737550 | 26.11° C | 72% | 1017.3 hPa | - | - | - | - |
| 1787736650 | 25.56° C | 72% | 1017.3 hPa | - | - | - | - |
| 1787735749 | 24.44° C | 56% | 1017.4 hPa | - | - | - | - |
| 1787734849 | 25° C | 53% | 1017.3 hPa | - | - | - | - |
| 1787733949 | 26.11° C | 52% | 1017.3 hPa | - | - | - | - |
| 1787733049 | 22.22° C | 59% | 1017.3 hPa | - | - | - | - |
| 1787732149 | 21.11° C | 65% | 1017.4 hPa | - | - | - | - |
| 1787731249 | 20° C | 67% | 1017.2 hPa | - | - | - | - |
| 1787730347 | 20° C | 68% | 1017 hPa | - | - | - | - |
* Rain since midnight (hover to see other rain measurements)
** Current wind speed in m/s (hover to see current wind gust speed)